GFSMA_850_thetae_021.txt.gz
Theta_e
320 320 321 322 323 325 326 329 331 331 331 331 330 329 328 327 327 328 327 328 325 322 327 327 327 329 329 328 327 315 320 331 339 340 336 338 337 335 331 330 333 331 333
321 321 322 323 324 326 329 330 333 333 332 332 331 330 329 329 329 329 327 327 329 325 327 328 329 330 330 328 327 324 312 327 334 338 339 339 338 333 329 329 331 331 333
322 322 323 324 327 329 328 332 334 333 333 332 332 331 331 330 329 328 328 327 329 328 327 327 327 327 328 328 326 325 315 321 332 336 337 338 338 335 328 329 330 332 332
322 322 328 330 332 330 331 333 334 333 332 332 332 330 331 329 329 328 327 327 328 329 328 328 327 325 326 326 325 326 318 317 329 335 336 335 336 335 329 331 332 332 332
330 335 333 335 333 332 332 333 331 331 331 331 329 329 329 329 328 328 327 326 327 328 329 328 325 325 327 323 322 327 324 314 326 330 333 335 336 337 333 333 332 333 329
338 336 336 334 333 333 332 332 332 332 330 328 327 327 328 329 328 328 327 326 327 327 328 328 326 326 327 326 314 325 327 316 322 329 331 334 336 335 334 333 333 332 332
340 337 336 333 334 333 333 333 332 330 329 327 326 326 327 327 328 327 328 327 326 326 327 328 325 327 327 326 315 320 323 322 319 328 331 332 334 335 334 332 332 330 328
339 337 333 333 334 334 332 330 331 329 327 327 326 326 327 327 327 326 327 326 326 327 327 327 325 326 325 326 327 320 316 321 321 327 332 334 335 334 333 333 331 331 323
337 333 333 334 334 332 331 331 329 327 326 326 325 326 326 326 326 327 327 327 327 327 326 326 326 325 324 325 328 324 317 324 326 329 332 333 335 335 332 333 331 317 311
334 334 334 334 333 332 331 328 325 325 324 324 325 325 325 324 324 324 326 326 326 326 326 327 326 325 325 326 328 325 321 326 328 330 332 333 334 333 334 332 328 325 319
334 334 334 333 332 332 325 324 323 322 322 323 323 324 324 324 324 324 325 324 324 326 326 326 324 325 326 325 327 324 321 325 328 331 332 335 332 332 331 329 326 316 311
334 334 334 332 329 325 323 322 322 323 323 324 323 323 323 323 323 324 324 326 324 326 325 326 326 326 326 326 326 329 323 327 330 331 332 334 332 331 331 325 319 312 317
332 330 329 327 325 324 323 323 323 323 325 325 325 322 322 323 323 323 323 326 326 326 326 326 326 325 325 325 326 327 327 328 330 331 333 331 332 331 325 313 311 319 319
329 328 324 324 323 324 323 321 323 324 325 324 323 324 322 322 322 321 324 325 326 325 324 324 324 325 324 326 326 328 324 323 328 331 332 331 332 331 317 315 318 320 313
329 325 323 322 323 323 325 326 327 326 325 324 323 323 323 322 322 324 324 325 326 326 326 324 324 323 326 326 326 327 326 325 329 332 333 331 331 325 322 315 319 321 319
326 325 323 324 325 325 327 327 327 326 324 323 323 324 323 324 325 325 325 326 326 326 325 328 329 328 328 328 327 327 328 330 331 333 331 331 328 316 316 320 321 318 308
322 323 325 325 327 328 328 327 327 326 323 322 322 324 324 324 326 326 326 326 326 327 326 327 331 331 329 330 329 331 329 329 331 332 329 326 315 316 320 320 318 319 315
325 324 325 326 325 327 327 327 328 328 325 324 325 324 325 325 326 325 327 328 326 327 327 327 330 327 330 330 331 329 329 330 327 326 324 318 320 320 320 317 317 316 314
324 326 326 325 326 327 327 328 328 327 327 325 325 326 325 325 325 326 327 327 327 327 326 325 329 326 329 329 327 326 327 323 325 317 315 319 319 317 319 319 318 314 313
326 326 325 326 326 327 328 328 327 326 324 325 325 326 325 326 326 327 326 327 327 327 325 324 327 324 325 324 326 324 320 320 318 317 316 318 318 320 320 315 314 311 314
325 325 325 326 327 327 328 328 327 326 327 325 326 326 326 327 328 327 327 327 327 326 325 326 324 322 321 320 322 321 321 319 318 319 319 319 318 319 317 311 312 314 315
325 325 326 326 327 327 328 328 326 327 328 328 328 327 327 327 326 326 327 327 326 325 325 324 322 320 320 320 321 320 320 320 320 320 319 317 317 316 314 314 314 315 312
324 326 327 325 327 323 327 328 329 328 328 327 327 328 327 326 326 326 326 324 324 323 323 324 322 322 321 322 321 321 320 321 320 318 316 316 315 314 314 314 313 312 313
325 325 325 325 326 324 325 327 328 328 327 328 328 328 327 326 325 325 324 322 323 323 322 322 322 322 322 322 321 322 321 321 319 315 313 316 316 314 312 312 312 313 314
325 325 325 326 327 325 324 327 328 327 327 328 328 326 325 324 324 324 323 323 323 323 323 322 323 322 322 322 322 322 320 320 315 313 313 311 312 312 312 312 313 315 312
325 325 326 327 327 324 326 328 328 328 328 328 326 326 325 324 324 324 323 323 323 323 322 322 323 322 322 322 321 321 320 314 310 312 313 312 311 312 311 313 316 315 312

GFSMA_850_thetae_024.txt.gz
Theta_e
319 319 319 320 321 322 323 326 327 328 329 330 330 330 329 328 327 328 327 328 328 328 320 321 321 327 328 329 328 327 315 323 334 339 339 334 336 334 332 331 333 334 333
319 319 319 320 321 322 325 327 329 330 331 331 331 331 330 329 328 328 328 328 327 328 322 324 321 325 325 329 328 327 319 318 329 336 339 336 337 336 335 332 332 333 332
320 320 320 320 321 322 327 329 331 332 332 332 330 330 331 330 330 329 328 328 327 329 325 326 326 327 329 330 328 327 326 314 324 331 336 335 330 337 333 330 330 332 332
321 320 321 321 322 323 329 331 332 333 332 330 330 331 332 330 329 330 329 328 327 327 328 326 326 326 326 327 328 327 325 319 319 330 335 336 333 335 332 328 329 331 334
325 322 321 322 323 327 333 331 333 333 331 331 330 329 328 328 329 329 329 328 327 326 327 328 327 326 325 326 326 324 326 323 318 328 333 335 335 336 335 329 331 333 333
333 328 323 323 327 334 332 333 332 331 332 331 329 327 326 326 327 328 329 328 327 326 326 328 328 325 325 326 326 318 327 324 316 325 329 333 333 335 335 332 333 333 334
335 330 331 330 334 333 333 333 332 333 331 329 328 326 325 325 325 327 328 328 327 326 327 328 328 326 327 326 324 314 323 326 318 322 328 330 333 335 335 334 333 333 330
336 336 335 335 334 333 334 333 332 331 330 328 327 326 326 325 325 326 327 327 327 326 326 327 327 326 326 326 327 320 319 324 322 320 328 330 333 334 335 334 333 333 330
337 339 337 334 335 334 334 332 332 331 327 326 326 326 326 325 325 326 326 326 327 326 327 327 327 326 326 325 326 327 321 318 324 320 327 330 331 334 334 333 333 328 324
340 337 335 333 333 334 333 332 331 326 325 325 325 325 325 325 324 324 326 327 327 327 326 326 326 326 325 324 325 328 322 317 324 324 328 332 332 334 333 333 330 327 326
337 335 334 334 334 332 331 330 324 323 322 322 323 323 324 325 324 324 324 322 325 326 326 326 326 326 325 325 326 327 322 318 325 326 329 332 332 333 331 332 330 328 327
334 333 334 334 333 332 328 323 322 321 323 323 323 322 323 324 323 323 324 325 324 326 326 326 326 325 325 326 326 327 322 321 325 328 331 332 333 331 332 332 329 328 325
334 333 331 332 330 327 324 322 321 323 323 323 324 324 322 322 323 323 323 324 326 325 326 326 325 324 325 326 325 327 328 323 326 328 330 332 332 329 331 329 328 320 320
332 332 329 327 325 325 323 322 322 324 325 324 324 324 324 322 322 323 323 323 326 326 326 326 325 326 325 325 325 327 327 327 330 329 331 333 332 331 330 327 317 322 321
331 328 325 324 324 323 323 323 325 326 325 325 324 324 324 323 322 322 323 325 325 325 325 324 324 324 325 324 325 326 327 324 326 329 332 332 330 329 326 317 321 320 309
328 325 323 323 323 325 326 327 327 326 325 324 324 324 323 323 322 323 324 324 325 326 325 324 323 324 324 325 325 326 327 325 326 330 332 331 326 321 316 321 320 319 310
324 324 323 325 326 327 327 327 327 327 326 323 322 323 324 323 324 325 325 325 326 326 326 324 325 328 329 327 326 327 327 328 329 331 329 328 325 322 320 320 320 312 308
322 324 325 325 325 326 327 327 327 328 327 325 324 322 324 323 325 326 325 326 325 326 327 326 327 329 328 327 330 328 329 329 330 330 329 327 317 317 320 321 318 317 315
324 324 325 325 325 326 326 327 328 328 327 326 325 324 325 324 325 325 325 326 327 327 326 326 327 327 328 330 329 328 328 326 326 324 318 317 318 320 320 319 319 315 314
325 325 325 325 326 326 327 328 327 326 326 324 326 325 325 325 325 325 326 327 327 327 326 328 327 326 326 325 327 325 322 324 319 318 317 316 318 319 318 319 314 313 313
325 325 325 326 326 328 328 328 327 327 327 327 326 325 326 326 327 327 327 326 327 327 326 326 325 325 324 323 325 324 324 322 319 320 321 319 319 318 318 315 313 312 313
324 324 325 325 324 327 328 328 327 327 327 326 327 326 326 326 327 327 327 327 327 326 326 325 324 324 324 324 324 323 322 319 317 318 319 318 318 320 317 313 312 313 315
324 324 326 325 325 324 327 328 328 328 328 327 327 327 327 327 326 326 325 324 325 324 324 324 324 323 322 323 323 320 320 319 318 319 320 318 319 318 313 311 313 315 313
324 324 325 325 326 325 325 327 328 327 327 328 328 327 326 326 326 325 323 324 324 323 323 323 323 322 322 322 321 321 320 320 320 319 319 318 317 316 315 315 314 313 313
324 324 325 326 326 325 326 328 327 327 328 328 328 327 326 325 324 324 323 323 323 323 323 322 322 322 321 321 321 321 321 321 319 318 318 317 314 313 312 312 313 313 315
325 325 325 327 326 323 327 328 327 327 328 327 326 325 324 324 323 323 323 323 323 322 321 321 321 322 322 321 320 321 322 321 318 313 311 311 311 312 313 313 313 315 315

GFSMA_850_thetae_030.txt.gz
Theta_e
326 327 330 331 333 331 329 323 329 333 338 337 336 335 334 334 334 333 332 333 328 328 326 324 323 323 325 328 328 328 330 330 320 322 335 328 333 334 334 333 331 326 329
332 332 328 331 332 325 320 327 334 336 337 336 336 335 335 334 334 334 332 333 331 327 327 327 328 321 322 325 328 328 329 328 318 323 335 337 334 333 334 333 333 331 330
333 329 332 333 331 323 319 320 334 337 335 335 336 336 336 335 334 334 334 333 333 331 328 327 327 318 321 322 326 327 328 327 319 322 333 337 336 333 334 334 333 334 334
337 334 333 333 331 326 319 327 333 334 335 335 335 334 334 334 334 334 333 333 332 332 332 328 327 323 322 321 323 325 329 327 324 320 330 336 337 335 334 333 333 334 334
338 337 336 333 331 330 328 328 331 333 335 336 336 333 331 333 332 333 333 333 333 333 333 333 329 325 326 326 325 327 329 328 327 316 325 332 330 329 331 329 332 332 334
339 338 337 334 332 331 331 330 332 334 332 336 337 334 333 332 331 332 332 332 332 332 333 332 333 328 326 326 326 329 328 328 327 321 319 329 331 323 329 330 332 331 332
337 336 338 336 333 331 329 325 323 328 335 335 335 332 331 331 332 331 332 330 331 332 333 332 330 332 329 325 325 327 326 324 327 323 316 328 332 328 327 330 331 332 332
335 337 338 338 334 333 325 325 325 335 335 334 334 332 329 330 331 331 332 331 331 332 333 332 331 330 332 329 328 326 320 324 326 322 317 328 334 334 333 334 333 332 333
338 338 338 339 335 332 331 326 332 336 335 333 331 331 329 328 330 330 330 331 330 329 330 331 327 329 329 332 332 326 315 320 325 322 320 327 332 333 335 334 332 333 332
340 338 337 336 332 329 334 336 334 336 334 333 330 328 329 328 327 329 330 330 329 329 329 329 326 327 327 328 331 331 328 318 323 325 319 327 331 333 335 333 333 333 331
339 339 335 331 329 334 337 333 336 333 332 331 329 329 329 328 329 328 329 330 328 329 329 327 327 326 325 327 333 330 327 322 319 323 320 327 330 333 334 333 333 331 326
340 337 337 335 336 338 334 333 334 332 331 330 328 328 328 329 327 328 329 329 329 328 328 327 328 327 328 330 331 328 328 321 318 322 323 327 330 332 333 333 332 327 326
340 338 338 337 335 333 332 334 332 331 330 329 329 329 329 328 327 326 327 328 328 325 326 326 326 329 332 331 329 325 327 318 320 322 323 329 330 330 330 332 331 326 326
343 337 338 336 336 335 334 331 330 330 330 330 329 328 329 328 327 326 326 327 327 325 326 325 326 328 329 327 329 326 326 319 325 323 324 329 328 329 330 332 329 328 326
339 337 337 336 335 333 329 329 329 330 330 328 328 328 327 327 327 327 323 323 324 325 326 327 327 327 327 327 328 328 329 320 323 325 323 328 328 329 331 331 329 324 321
337 336 334 332 330 330 330 327 330 330 329 328 329 330 328 328 328 325 324 324 325 326 325 328 327 327 328 327 325 328 328 325 325 326 326 329 329 330 330 328 323 323 318
333 334 332 331 329 330 330 330 330 329 328 329 330 330 330 329 328 327 328 328 327 326 329 328 328 327 327 327 325 326 327 327 329 328 327 330 329 329 324 321 322 319 313
332 330 329 329 329 331 331 331 331 331 329 327 330 329 330 330 330 329 328 330 331 329 330 330 327 325 327 327 324 326 327 325 327 328 330 330 329 325 322 321 317 310 310
329 328 329 329 329 330 331 330 329 327 327 328 330 330 329 330 330 329 328 330 330 329 330 326 329 324 327 325 325 327 328 325 329 330 328 328 325 321 322 317 310 310 308
329 329 329 329 330 331 332 331 328 330 329 330 331 331 330 331 331 329 329 330 330 329 330 326 326 329 329 328 327 327 328 329 328 324 326 325 323 321 320 317 310 310 315
328 329 330 330 331 332 329 329 331 329 326 328 329 331 330 330 328 326 330 328 330 330 328 326 328 327 328 328 329 330 329 327 325 325 323 320 320 319 314 311 313 317 315
330 330 331 330 330 330 328 328 327 326 328 327 329 330 327 325 325 326 326 326 331 328 326 326 328 328 328 328 328 328 327 325 320 320 321 321 321 319 314 317 316 314 313
330 330 330 329 330 327 326 328 328 328 328 327 326 327 326 326 326 327 327 327 327 327 326 326 327 327 326 327 327 325 326 325 321 321 322 320 319 319 319 318 314 313 314
327 326 330 330 331 324 327 328 328 328 328 328 327 327 327 327 327 327 327 327 327 326 326 327 326 326 326 326 326 324 323 322 320 320 320 319 319 319 317 316 312 311 311
324 328 330 330 329 326 328 328 327 328 327 328 328 327 327 326 326 325 326 326 326 325 325 326 326 326 326 325 325 324 321 320 319 320 319 319 318 318 318 315 313 311 314
324 330 330 327 325 327 328 328 327 327 328 327 326 326 326 326 326 325 325 325 325 325 324 324 325 324 324 322 323 322 321 319 318 319 319 319 318 319 319 319 317 314 315

GFSMA_850_thetae_033.txt.gz
Theta_e
331 331 332 333 336 334 332 334 333 332 338 339 338 337 336 335 335 334 334 334 332 330 326 320 321 325 325 327 327 329 329 329 330 326 329 335 334 330 334 329 333 327 325
336 335 333 334 335 336 335 333 337 338 340 339 339 337 336 336 336 335 334 334 333 331 328 327 326 326 324 324 327 328 328 329 330 324 326 334 329 333 335 334 333 330 327
338 337 337 337 334 335 334 335 336 338 339 340 337 338 337 336 334 335 334 334 331 330 332 328 328 327 325 322 323 327 327 329 328 321 323 335 331 334 333 334 333 333 329
340 338 339 338 336 334 336 335 335 335 339 337 336 337 337 335 336 335 334 333 334 331 333 333 330 328 320 322 324 325 326 328 328 324 318 332 338 335 334 334 334 333 334
343 341 341 338 337 335 334 334 333 336 336 337 336 337 337 335 336 335 333 333 332 333 333 332 333 329 323 321 324 323 324 326 328 325 317 329 336 336 334 334 333 329 328
344 344 342 340 337 336 334 334 332 336 334 336 337 337 335 336 336 332 331 330 333 334 331 332 333 331 325 326 325 323 325 328 328 327 317 327 333 335 334 332 330 330 333
345 342 342 341 339 337 335 333 334 333 335 335 337 336 336 334 332 333 330 331 333 332 330 332 332 333 328 326 327 328 329 329 328 327 319 322 331 328 325 331 331 332 331
345 343 342 342 339 338 336 334 333 335 334 336 338 336 333 330 332 333 332 331 333 330 331 331 334 333 332 328 325 325 327 326 327 327 323 321 331 329 328 328 332 330 332
343 342 340 342 341 339 337 334 335 331 338 336 336 335 330 331 331 332 332 331 331 329 330 332 333 333 330 328 329 326 325 322 324 326 323 322 331 330 331 329 333 332 331
341 343 342 341 341 340 338 336 334 336 337 337 336 334 333 331 330 330 331 331 330 329 328 329 331 331 331 328 332 329 320 315 325 325 319 325 332 334 334 333 333 331 331
344 344 342 341 340 340 336 336 338 338 337 336 333 332 330 330 330 329 329 332 330 329 329 329 330 331 330 330 331 331 330 317 323 326 318 326 330 333 334 333 332 331 331
344 344 343 340 340 336 338 340 339 336 335 335 332 331 330 329 330 330 329 330 330 329 329 329 329 329 328 326 331 331 327 325 319 324 319 327 330 332 332 331 332 332 326
342 342 341 340 338 341 339 339 337 337 335 333 331 331 329 329 328 328 330 329 330 329 328 327 328 327 326 325 327 330 326 325 317 323 321 326 329 330 330 330 333 326 326
342 341 341 341 340 340 339 338 336 335 333 332 332 330 331 331 329 329 330 329 330 330 329 330 327 328 329 329 331 325 326 320 318 321 320 325 329 330 330 331 331 326 326
343 342 342 340 339 338 337 335 333 330 331 331 331 330 330 328 328 329 329 329 329 329 329 327 326 327 328 328 329 327 325 317 322 321 324 329 330 330 329 331 329 326 325
342 342 340 339 338 336 335 332 331 332 332 329 327 330 331 326 330 330 327 327 327 326 329 325 327 327 327 330 327 330 328 319 324 321 326 328 328 330 330 329 328 326 321
340 338 337 336 335 334 332 329 333 333 332 329 328 332 331 327 330 328 328 325 325 326 325 328 329 328 327 328 325 328 327 322 324 324 326 328 329 330 330 328 324 323 320
336 335 334 333 331 331 332 333 333 332 333 330 329 331 331 330 331 329 329 328 327 327 325 328 328 327 328 328 327 328 325 327 327 326 328 329 329 329 327 325 322 319 313
333 332 330 330 330 331 332 333 333 333 331 329 328 330 331 331 330 330 331 329 329 328 329 331 328 327 328 328 326 327 327 327 328 328 329 329 328 325 322 322 320 308 307
331 330 330 330 330 331 332 333 333 330 332 328 329 329 330 330 332 332 331 330 330 329 330 328 325 327 326 326 326 328 326 328 329 329 328 327 322 321 321 318 309 310 309
330 330 330 331 332 333 333 332 333 330 331 329 328 331 331 331 330 331 331 330 329 330 329 327 326 326 326 328 326 328 327 329 328 327 326 323 319 322 316 310 310 309 313
329 330 329 331 333 331 329 329 328 329 327 327 330 331 330 327 327 326 326 327 330 331 328 326 327 328 329 328 328 328 329 328 323 325 325 322 322 321 318 311 310 316 315
329 331 331 331 332 326 326 328 329 329 329 330 329 330 331 329 325 326 326 326 328 329 327 327 329 328 328 329 328 328 327 325 324 322 324 321 322 318 312 310 312 315 311
331 333 332 333 332 325 328 328 328 328 328 329 326 329 330 327 328 326 327 327 330 329 327 326 328 328 328 328 329 328 327 326 324 323 322 321 320 318 313 316 316 313 312
332 332 333 333 331 327 328 328 328 328 327 327 329 331 332 329 327 327 327 327 329 328 325 327 327 327 327 326 327 326 326 324 321 320 320 320 319 319 319 319 317 313 311
332 332 332 330 326 328 328 327 327 327 327 327 328 327 328 326 326 327 327 327 327 325 325 326 326 326 326 326 326 326 326 325 322 321 320 320 319 319 319 320 316 313 310